Location: Saint-Hippolyte
(43.6394°N, 4.7559°E)
Time: 15:16:25
(UTC+00:00)

Cosmos 2227 Rocket - Pass Details

Date: 24 October 2020
Orbit: 839 x 845 km, 71.0° (Epoch: 23 November)

Event Time Altitude Azimuth Distance (km) Brightness Sun altitude
Rises 19:50:37 0° 325° (NW) 3,406 6.0 -34.4°
Reaches altitude 10° 19:53:21 10° 314° (NW) 2,467 5.3 -34.9°
Maximum altitude 19:58:05 28° 257° (WSW) 1,530 3.9 -35.7°
Enters shadow 19:58:55 27° 242° (WSW) 1,566 3.8 -35.8°
